| time (UTC) | temp F | wind direction | speed knots | gust knots | rain 1hr in | rain 24hr in | rain mn in | humidity % | barometer mb |
| 20260504100202 | 76 | 51 | 0.9 | 2.6 | 0.00 | 0.21 | 0.00 | 86 | 1014.9 |
| 20260504081703 | 78 | 80 | 1.7 | 4.3 | 0.00 | 0.22 | 0.00 | 79 | 1014.8 |
| 20260504081202 | 78 | 65 | 0.9 | 2.6 | 0.00 | 0.22 | 0.00 | 78 | 1014.9 |
| 20260504080703 | 78 | 64 | 0.0 | 2.6 | 0.00 | 0.22 | 0.00 | 78 | 1014.9 |
| 20260504080203 | 78 | 42 | 1.7 | 2.6 | 0.00 | 0.22 | 0.00 | 77 | 1014.9 |
| 20260504070203 | 80 | 295 | 0.9 | 2.6 | 0.00 | 0.22 | 0.00 | 74 | 1015.6 |
| 20260504050702 | 81 | 1 | 2.6 | 6.1 | 0.00 | 0.22 | 0.00 | 70 | 1016.1 |
| 20260504050203 | 81 | 348 | 1.7 | 5.2 | 0.00 | 0.22 | 0.00 | 70 | 1016.1 |
| 20260504045703 | 82 | 25 | 0.9 | 2.6 | 0.00 | 0.22 | 0.00 | 69 | 1016.1 |
| 20260504045203 | 83 | 85 | 1.7 | 2.6 | 0.00 | 0.22 | 0.00 | 68 | 1016.1 |
| 20260504044703 | 83 | 337 | 1.7 | 4.3 | 0.00 | 0.22 | 0.00 | 69 | 1016.1 |
| 20260504044203 | 82 | 28 | 0.9 | 2.6 | 0.00 | 0.22 | 0.00 | 68 | 1016.2 |
| 20260504043703 | 82 | 25 | 2.6 | 5.2 | 0.00 | 0.22 | 0.00 | 69 | 1016.2 |
| 20260504043203 | 82 | 71 | 0.9 | 2.6 | 0.00 | 0.22 | 0.00 | 70 | 1016.3 |
| 20260504042203 | 81 | 343 | 0.9 | 4.3 | 0.00 | 0.22 | 0.00 | 71 | 1016.2 |
| 20260504041703 | 80 | 23 | 0.9 | 4.3 | 0.00 | 0.22 | 0.00 | 72 | 1016.4 |
| 20260504041203 | 80 | 46 | 1.7 | 2.6 | 0.00 | 0.22 | 0.00 | 72 | 1016.4 |
| 20260504040702 | 78 | 87 | 0.9 | 2.6 | 0.00 | 0.22 | 0.00 | 73 | 1016.5 |
| 20260504040203 | 78 | 352 | 0.9 | 2.6 | 0.00 | 0.22 | 0.00 | 74 | 1016.5 |
| 20260504035203 | 78 | 349 | 0.0 | 2.6 | 0.00 | 0.22 | 0.00 | 73 | 1016.5 |
| 20260504033703 | 78 | 7 | 0.9 | 2.6 | 0.00 | 0.22 | 0.00 | 73 | 1016.6 |
| 20260504031703 | 79 | 341 | 1.7 | 2.6 | 0.00 | 0.22 | 0.00 | 71 | 1016.4 |
| 20260504031202 | 79 | 66 | 1.7 | 2.6 | 0.00 | 0.22 | 0.00 | 71 | 1016.5 |
| 20260504030703 | 78 | 232 | 0.0 | 1.7 | 0.00 | 0.22 | 0.00 | 72 | 1016.7 |
| 20260504030203 | 78 | 7 | 0.9 | 2.6 | 0.00 | 0.22 | 0.00 | 72 | 1016.6 |
| 20260504025703 | 78 | 56 | 0.9 | 4.3 | 0.00 | 0.22 | 0.00 | 72 | 1016.7 |
| 20260504025203 | 78 | 98 | 2.6 | 4.3 | 0.00 | 0.22 | 0.00 | 71 | 1016.9 |
| 20260504024704 | 78 | 121 | 1.7 | 2.6 | 0.00 | 0.22 | 0.00 | 71 | 1016.9 |
| 20260504023703 | 78 | 319 | 1.7 | 2.6 | 0.00 | 0.22 | 0.00 | 70 | 1017.0 |
| 20260504023203 | 78 | 44 | 2.6 | 6.1 | 0.00 | 0.22 | 0.00 | 71 | 1016.8 |
| 20260504021703 | 79 | 357 | 0.9 | 2.6 | 0.00 | 0.22 | 0.00 | 70 | 1016.8 |
| 20260504021203 | 78 | 109 | 0.9 | 5.2 | 0.00 | 0.22 | 0.00 | 72 | 1016.7 |
| 20260504020703 | 78 | 279 | 1.7 | 5.2 | 0.00 | 0.22 | 0.00 | 71 | 1016.7 |
| 20260504015703 | 77 | 67 | 2.6 | 7.0 | 0.00 | 0.22 | 0.00 | 71 | 1016.6 |
| 20260504015203 | 77 | 73 | 1.7 | 4.3 | 0.00 | 0.22 | 0.00 | 72 | 1016.5 |
| 20260504014204 | 77 | 348 | 0.9 | 2.6 | 0.00 | 0.22 | 0.00 | 73 | 1016.7 |
| 20260504013703 | 77 | 132 | 0.9 | 2.6 | 0.00 | 0.22 | 0.00 | 73 | 1016.7 |
| 20260504013203 | 77 | 132 | 1.7 | 4.3 | 0.00 | 0.22 | 0.00 | 72 | 1016.6 |
| 20260504012703 | 77 | 313 | 0.9 | 6.1 | 0.00 | 0.22 | 0.00 | 73 | 1016.7 |
| 20260504012203 | 77 | 326 | 0.9 | 7.0 | 0.00 | 0.22 | 0.00 | 73 | 1016.7 |
| 20260504011703 | 77 | 270 | 1.7 | 2.6 | 0.00 | 0.22 | 0.00 | 72 | 1016.5 |
| 20260504011203 | 77 | 225 | 0.9 | 2.6 | 0.00 | 0.22 | 0.00 | 72 | 1016.4 |
| 20260504010703 | 77 | 252 | 0.9 | 2.6 | 0.00 | 0.22 | 0.00 | 73 | 1016.3 |
| 20260504010203 | 77 | 181 | 0.9 | 1.7 | 0.00 | 0.22 | 0.00 | 74 | 1016.1 |
| 20260504005703 | 76 | 228 | 0.9 | 1.7 | 0.00 | 0.22 | 0.00 | 74 | 1016.0 |
| 20260504005203 | 76 | 125 | 0.9 | 1.7 | 0.00 | 0.22 | 0.00 | 74 | 1016.1 |
| 20260504004703 | 76 | 273 | 0.9 | 4.3 | 0.00 | 0.22 | 0.00 | 75 | 1016.2 |
| 20260504004203 | 76 | 324 | 0.9 | 2.6 | 0.00 | 0.22 | 0.00 | 75 | 1016.1 |
| 20260504003703 | 75 | 62 | 0.9 | 2.6 | 0.00 | 0.22 | 0.00 | 75 | 1016.2 |
| 20260504003203 | 75 | 58 | 1.7 | 2.6 | 0.00 | 0.22 | 0.00 | 75 | 1016.2 |
| 20260504002204 | 74 | 148 | 0.9 | 4.3 | 0.00 | 0.22 | 0.00 | 77 | 1016.2 |
| 20260504001703 | 74 | 61 | 1.7 | 4.3 | 0.00 | 0.22 | 0.00 | 76 | 1016.1 |
| 20260504001204 | 74 | 346 | 0.0 | 2.6 | 0.00 | 0.22 | 0.00 | 78 | 1016.1 |
| 20260504000703 | 74 | 187 | 0.9 | 0.9 | 0.00 | 0.22 | 0.00 | 78 | 1016.0 |
| 20260504000204 | 74 | 353 | 0.9 | 2.6 | 0.00 | 0.22 | 0.00 | 78 | 1015.8 |
| 20260503235703 | 74 | 323 | 0.9 | 1.7 | 0.00 | 0.22 | 0.00 | 79 | 1015.9 |
| 20260503235204 | 74 | 353 | 0.9 | 1.7 | 0.00 | 0.22 | 0.00 | 79 | 1015.9 |
| 20260503234703 | 73 | 340 | 0.0 | 1.7 | 0.00 | 0.22 | 0.00 | 79 | 1015.7 |
| 20260503234203 | 73 | 317 | 0.9 | 1.7 | 0.00 | 0.22 | 0.00 | 80 | 1015.7 |
| 20260503233703 | 73 | 36 | 0.9 | 2.6 | 0.00 | 0.22 | 0.00 | 81 | 1015.6 |
| 20260503232703 | 72 | 87 | 1.7 | 2.6 | 0.00 | 0.22 | 0.00 | 82 | 1015.5 |
| 20260503232203 | 72 | 147 | 0.9 | 1.7 | 0.00 | 0.22 | 0.00 | 83 | 1015.6 |
| 20260503231704 | 72 | 88 | 1.7 | 2.6 | 0.00 | 0.22 | 0.00 | 83 | 1015.4 |
| 20260503231203 | 72 | 83 | 0.9 | 2.6 | 0.00 | 0.22 | 0.00 | 83 | 1015.5 |
| 20260503230703 | 72 | 96 | 0.9 | 2.6 | 0.00 | 0.22 | 0.00 | 83 | 1015.4 |
| 20260503225703 | 72 | 58 | 0.0 | 0.9 | 0.00 | 0.22 | 0.00 | 83 | 1015.3 |
| 20260503225203 | 72 | 359 | 0.0 | 1.7 | 0.00 | 0.22 | 0.00 | 82 | 1015.4 |
| 20260503224703 | 72 | 32 | 0.0 | 0.9 | 0.00 | 0.22 | 0.00 | 83 | 1015.3 |
| 20260503223704 | 72 | 83 | 0.0 | 0.9 | 0.00 | 0.22 | 0.00 | 82 | 1015.0 |
| 20260503223203 | 72 | 83 | 0.0 | 0.0 | 0.00 | 0.22 | 0.00 | 83 | 1014.8 |
| 20260503221704 | 72 | 39 | 0.9 | 1.7 | 0.00 | 0.22 | 0.00 | 82 | 1014.5 |
| 20260503221203 | 72 | 27 | 0.0 | 1.7 | 0.00 | 0.22 | 0.00 | 82 | 1014.5 |
| 20260503220703 | 71 | 70 | 0.0 | 0.9 | 0.00 | 0.22 | 0.00 | 83 | 1014.4 |
| 20260503220204 | 71 | 69 | 0.0 | 0.9 | 0.00 | 0.22 | 0.00 | 84 | 1014.3 |
| 20260503215704 | 71 | 112 | 0.0 | 0.9 | 0.00 | 0.22 | 0.00 | 84 | 1014.1 |
| 20260503214703 | 72 | 147 | 0.9 | 2.6 | 0.00 | 0.22 | 0.00 | 84 | 1013.9 |
| 20260503214203 | 72 | 104 | 1.7 | 2.6 | 0.00 | 0.22 | 0.00 | 84 | 1013.8 |
| 20260503213704 | 72 | 2 | 0.0 | 0.9 | 0.00 | 0.22 | 0.00 | 84 | 1013.8 |
| 20260503212703 | 72 | 0 | 0.0 | 0.9 | 0.00 | 0.22 | 0.00 | 84 | 1013.8 |
| 20260503212204 | 72 | 0 | 0.0 | 0.9 | 0.00 | 0.22 | 0.00 | 85 | 1013.6 |
| 20260503211703 | 72 | 359 | 0.0 | 0.9 | 0.00 | 0.22 | 0.00 | 84 | 1013.5 |
| 20260503211203 | 72 | 359 | 0.0 | 1.7 | 0.00 | 0.22 | 0.00 | 84 | 1013.3 |
| 20260503210704 | 72 | 1 | 0.0 | 0.0 | 0.00 | 0.22 | 0.00 | 84 | 1013.3 |
| 20260503210203 | 72 | 7 | 0.0 | 2.6 | 0.00 | 0.22 | 0.00 | 85 | 1013.3 |
| 20260503205703 | 71 | 74 | 0.0 | 0.9 | 0.00 | 0.22 | 0.00 | 85 | 1013.2 |
| 20260503205203 | 71 | 74 | 0.0 | 0.9 | 0.00 | 0.22 | 0.00 | 84 | 1013.3 |
| 20260503204704 | 72 | 74 | 0.0 | 0.9 | 0.00 | 0.22 | 0.00 | 85 | 1013.2 |
| 20260503204203 | 71 | 74 | 0.0 | 0.9 | 0.00 | 0.22 | 0.00 | 85 | 1013.2 |
| 20260503203704 | 71 | 93 | 0.9 | 1.7 | 0.00 | 0.22 | 0.00 | 85 | 1013.0 |
| 20260503203204 | 71 | 84 | 0.9 | 1.7 | 0.00 | 0.22 | 0.00 | 85 | 1012.9 |
| 20260503202703 | 71 | 68 | 0.9 | 2.6 | 0.00 | 0.22 | 0.00 | 85 | 1012.9 |
| 20260503201703 | 71 | 93 | 0.0 | 1.7 | 0.00 | 0.22 | 0.00 | 85 | 1012.8 |
| 20260503200703 | 71 | 108 | 0.9 | 2.6 | 0.00 | 0.22 | 0.00 | 85 | 1012.7 |
| 20260503195704 | 72 | 60 | 0.0 | 0.9 | 0.00 | 0.22 | 0.00 | 85 | 1013.0 |
| 20260503195203 | 72 | 60 | 0.0 | 0.9 | 0.00 | 0.22 | 0.00 | 85 | 1013.0 |
| 20260503194704 | 72 | 53 | 0.9 | 1.7 | 0.00 | 0.22 | 0.00 | 84 | 1012.9 |
| 20260503194204 | 72 | 65 | 0.0 | 0.9 | 0.00 | 0.22 | 0.00 | 85 | 1013.1 |
| 20260503193703 | 71 | 82 | 0.9 | 1.7 | 0.00 | 0.22 | 0.00 | 86 | 1013.1 |
| 20260503193203 | 72 | 83 | 0.9 | 1.7 | 0.00 | 0.22 | 0.00 | 86 | 1013.1 |
| 20260503192703 | 71 | 100 | 0.9 | 1.7 | 0.00 | 0.22 | 0.00 | 86 | 1013.0 |
| 20260503192204 | 72 | 112 | 0.9 | 1.7 | 0.00 | 0.22 | 0.00 | 86 | 1013.2 |
| 20260503191204 | 72 | 86 | 0.9 | 2.6 | 0.00 | 0.22 | 0.00 | 85 | 1013.2 |
| 20260503190704 | 72 | 55 | 0.0 | 0.9 | 0.00 | 0.22 | 0.00 | 86 | 1013.2 |
| 20260503190203 | 72 | 98 | 0.0 | 0.0 | 0.00 | 0.22 | 0.00 | 85 | 1013.3 |
| 20260503185703 | 72 | 98 | 0.0 | 1.7 | 0.00 | 0.22 | 0.00 | 84 | 1013.4 |
| 20260503185203 | 72 | 15 | 0.9 | 1.7 | 0.00 | 0.22 | 0.00 | 85 | 1013.4 |
| 20260503184704 | 72 | 6 | 0.9 | 0.9 | 0.00 | 0.22 | 0.00 | 85 | 1013.4 |
| 20260503184203 | 72 | 293 | 0.0 | 0.9 | 0.00 | 0.22 | 0.00 | 85 | 1013.4 |
| 20260503183704 | 72 | 306 | 0.0 | 0.9 | 0.00 | 0.22 | 0.00 | 85 | 1013.5 |
| 20260503182704 | 72 | 6 | 0.0 | 0.9 | 0.00 | 0.22 | 0.00 | 85 | 1013.2 |
| 20260503182203 | 72 | 15 | 0.0 | 1.7 | 0.00 | 0.22 | 0.00 | 86 | 1013.3 |
| 20260503181703 | 72 | 80 | 0.9 | 1.7 | 0.00 | 0.22 | 0.00 | 86 | 1013.2 |
| 20260503181203 | 72 | 73 | 0.0 | 1.7 | 0.00 | 0.22 | 0.00 | 85 | 1013.5 |
| 20260503180704 | 73 | 65 | 0.9 | 2.6 | 0.00 | 0.22 | 0.00 | 86 | 1013.6 |
| 20260503180204 | 72 | 93 | 0.0 | 0.9 | 0.00 | 0.22 | 0.00 | 87 | 1013.8 |
| 20260503175204 | 72 | 83 | 0.0 | 1.7 | 0.00 | 0.22 | 0.00 | 87 | 1014.0 |
| 20260503174704 | 73 | 60 | 0.0 | 0.9 | 0.00 | 0.22 | 0.00 | 87 | 1014.0 |
| 20260503174203 | 73 | 60 | 0.9 | 2.6 | 0.00 | 0.22 | 0.00 | 87 | 1014.0 |
| 20260503173703 | 73 | 30 | 0.0 | 0.9 | 0.00 | 0.22 | 0.00 | 86 | 1014.2 |
| 20260503173204 | 73 | 29 | 0.0 | 1.7 | 0.00 | 0.22 | 0.00 | 88 | 1014.5 |
| 20260503172704 | 73 | 84 | 0.0 | 0.0 | 0.00 | 0.22 | 0.00 | 88 | 1014.5 |
| 20260503171703 | 73 | 80 | 0.9 | 2.6 | 0.00 | 0.22 | 0.00 | 90 | 1014.6 |
| 20260503170703 | 73 | 98 | 0.9 | 1.7 | 0.00 | 0.22 | 0.00 | 91 | 1014.7 |
| 20260503170204 | 72 | 85 | 0.9 | 2.6 | 0.00 | 0.22 | 0.00 | 91 | 1014.8 |
| 20260503160203 | 73 | 288 | 0.0 | 0.9 | 0.01 | 0.22 | 0.00 | 91 | 1014.9 |
| 20260503150704 | 73 | 317 | 0.9 | 2.6 | 0.01 | 0.21 | 0.21 | 92 | 1014.8 |
| 20260503150204 | 73 | 334 | 1.7 | 2.6 | 0.01 | 0.21 | 0.21 | 92 | 1014.9 |
| 20260503131204 | 74 | 302 | 0.0 | 0.9 | 0.10 | 0.13 | 0.13 | 95 | 1014.7 |
| 20260503130704 | 74 | 290 | 0.9 | 2.6 | 0.11 | 0.13 | 0.13 | 94 | 1014.5 |
| 20260503130204 | 74 | 295 | 0.0 | 2.6 | 0.11 | 0.13 | 0.13 | 94 | 1014.3 |
| 20260503120203 | 74 | 8 | 0.9 | 1.7 | 0.00 | 0.02 | 0.02 | 92 | 1013.9 |
| 20260503110702 | 74 | 150 | 0.0 | 1.7 | 0.01 | 0.02 | 0.02 | 93 | 1012.5 |
| 20260503110202 | 74 | 152 | 0.9 | 1.7 | 0.01 | 0.02 | 0.02 | 92 | 1012.4 |